RH
81 72 64 60 55 52 54 57 56 54 54 59 62 55 48 43 41 48 57 64 73 77 70 66 69 70 66 68 76 74 63 55 54 55 59 66 73 75 71 64 60 57 47 35 36 41 36 32 33 30 24 20 21 23 21 15 11 11 11 9 7 8 8 6 6 6 6 5 4 3 3 3 3 3 3 3 3 3 3 3 3 3 4 6 6 6 7
77 67 61 59 56 55 59 62 61 59 59 61 61 55 50 45 43 47 51 56 70 80 75 69 71 73 71 72 77 77 67 58 55 55 57 64 71 75 74 69 65 62 50 33 31 40 38 31 32 31 26 23 22 24 22 16 12 12 13 11 9 9 9 8 7 7 6 5 5 4 3 3 3 3 3 3 3 3 3 3 3 3 3 4 5 6 7
71 64 63 61 58 61 66 66 63 60 60 59 57 55 55 53 49 47 49 52 61 71 72 70 72 76 80 82 85 84 72 61 58 55 56 62 68 74 75 71 69 67 55 35 25 34 37 30 31 33 27 23 22 24 24 19 13 12 13 12 11 11 11 10 9 7 6 5 5 4 4 4 3 3 3 3 3 3 3 3 3 3 3 3 4 5 6
67 66 69 65 62 67 72 70 64 59 59 58 56 57 60 61 56 50 49 53 57 61 64 67 70 78 87 90 94 94 78 63 60 57 55 59 64 71 74 72 71 71 61 41 25 30 36 32 32 36 30 24 23 25 27 22 16 13 13 13 13 13 12 11 11 9 7 6 5 5 5 4 4 4 3 3 3 3 3 3 3 3 3 3 3 4 5
73 72 75 74 70 73 78 75 63 57 59 60 58 57 58 61 60 53 48 53 59 60 59 61 65 75 88 94 98 100 83 65 64 60 55 58 62 66 70 70 70 72 66 48 29 28 36 34 33 36 33 27 25 27 30 28 20 16 16 15 16 16 15 15 14 11 8 7 6 6 6 5 5 4 4 4 3 3 3 3 3 3 3 3 3 3 4
79 76 83 87 81 79 84 82 67 60 66 67 62 56 51 54 58 53 48 52 62 66 62 59 60 70 87 95 101 105 86 67 68 64 55 58 61 61 65 68 68 71 68 52 32 29 38 38 35 36 35 30 26 29 36 36 26 20 20 19 19 22 24 21 19 16 13 10 8 7 6 6 5 5 4 4 4 4 4 3 3 3 3 3 3 3 4
81 85 95 100 93 87 91 93 84 76 76 74 65 53 45 50 57 57 53 54 64 74 70 61 58 66 81 94 105 108 87 67 68 68 58 58 62 60 62 65 67 70 68 53 33 30 39 42 36 36 38 32 28 33 42 42 32 27 30 30 30 40 46 39 34 30 22 15 12 9 8 7 6 6 5 5 5 4 4 4 3 4 4 3 3 4 3
83 99 108 107 101 96 97 101 99 90 80 73 64 51 44 51 62 64 61 58 67 81 80 66 61 66 75 90 105 105 84 69 69 69 61 59 63 63 62 63 66 68 68 56 35 27 37 43 37 36 40 38 32 37 48 49 41 37 42 46 46 53 59 53 49 46 35 25 20 14 11 9 7 6 6 5 5 5 4 5 4 4 4 4 4 4 3
89 104 109 104 101 101 100 102 102 95 82 69 60 52 50 57 67 72 70 67 74 90 90 72 66 69 73 88 104 98 81 75 74 69 64 60 63 67 65 64 66 67 68 59 38 26 33 42 39 36 42 43 38 40 52 59 53 45 48 54 53 56 61 58 56 54 44 35 29 22 17 13 9 7 7 6 6 6 5 5 5 4 4 4 4 4 4
89 101 104 101 101 102 101 101 102 99 89 73 60 56 60 67 73 78 80 79 85 96 94 79 70 71 72 85 100 91 77 79 80 73 68 64 64 69 69 68 68 69 70 63 43 27 30 40 41 37 42 48 43 41 51 64 64 53 47 50 52 56 61 60 58 57 50 42 37 31 24 18 13 10 9 7 7 6 6 6 5 5 5 4 4 4 4
83 96 102 101 100 101 101 100 101 101 96 84 67 63 70 76 77 80 85 92 98 98 92 82 76 74 73 82 95 88 75 79 82 74 70 67 64 69 71 70 71 71 71 66 48 29 29 39 42 37 41 49 48 42 49 65 74 65 50 45 50 57 59 57 56 56 54 50 47 40 33 26 19 15 13 11 8 7 7 7 6 6 5 5 4 4 4
88 96 101 100 100 101 100 100 101 100 102 96 78 72 80 82 83 84 85 96 108 103 91 84 79 75 74 82 93 87 74 76 79 72 68 66 62 66 71 71 72 73 71 66 50 32 28 37 41 40 41 47 50 46 47 62 79 80 63 47 48 57 60 57 57 61 67 72 66 54 45 37 28 22 18 14 11 10 8 7 8 7 6 5 5 5 5
99 100 100 101 104 104 100 101 100 98 103 100 87 85 87 83 87 91 85 92 110 110 97 88 80 73 73 84 95 89 74 75 76 66 63 64 59 63 71 73 73 74 72 67 52 34 29 35 40 42 43 45 50 50 47 57 76 87 77 54 45 54 61 63 68 75 85 94 87 70 57 51 45 34 24 18 13 11 10 11 11 10 8 7 6 5 5
102 102 100 101 106 105 102 101 97 94 96 93 89 96 94 82 85 91 83 86 106 113 102 91 83 75 73 84 97 90 76 78 78 62 57 63 61 61 70 74 73 73 74 71 56 36 30 36 40 43 44 44 49 53 51 54 68 83 82 65 49 49 61 73 81 84 88 97 98 87 78 75 64 45 31 24 18 16 18 17 15 13 10 9 9 8 7
102 103 101 100 102 102 102 99 90 86 86 83 91 105 98 80 79 84 79 81 100 112 105 94 88 79 71 81 97 92 80 85 87 67 55 60 62 61 68 73 72 73 74 73 59 38 30 36 40 42 42 42 47 55 56 54 60 73 83 78 58 47 58 77 87 86 87 95 100 98 95 93 80 59 45 36 29 28 28 24 20 18 15 13 13 12 9
100 102 103 101 99 100 101 97 89 83 78 80 96 109 99 80 76 78 75 77 93 108 106 97 90 78 67 78 93 90 83 92 94 75 60 61 63 62 67 72 71 72 74 74 62 41 30 35 40 40 40 41 45 54 59 57 56 64 81 85 67 50 54 73 88 92 93 98 100 100 99 96 88 77 62 46 42 45 39 30 27 24 20 20 18 16 15
100 100 101 101 101 101 101 100 94 84 75 81 98 107 101 90 82 74 71 75 90 103 104 99 91 74 66 78 90 87 87 95 95 78 63 61 64 62 65 71 72 70 73 75 64 43 31 35 40 39 39 41 45 52 60 61 56 59 74 84 74 58 56 70 89 96 94 95 96 94 96 96 92 91 77 57 57 62 46 33 35 34 31 30 27 25 23
102 101 100 101 102 101 101 100 95 86 81 89 100 104 104 102 93 79 70 75 90 102 103 101 93 72 64 77 84 83 88 95 92 77 62 59 64 65 65 69 72 70 71 74 66 45 30 33 39 39 38 40 44 51 57 62 60 57 67 79 79 70 62 65 81 91 90 94 98 95 97 98 94 96 87 65 64 71 56 42 44 42 38 41 45 50 52
105 104 101 100 102 101 99 96 93 91 94 101 106 106 107 111 106 92 75 73 89 101 102 103 96 74 66 75 79 78 87 94 89 78 66 61 65 69 67 67 70 70 69 72 68 48 31 33 39 40 39 38 43 51 55 59 62 60 64 76 84 82 70 62 73 87 89 92 98 97 97 97 97 103 97 76 73 80 69 58 58 54 51 60 74 83 82
108 108 103 101 104 103 97 91 90 93 100 105 106 104 105 111 112 100 79 72 89 103 103 101 95 79 71 75 75 77 89 95 87 78 71 65 65 69 70 68 69 70 69 71 70 52 33 32 38 40 40 38 41 50 53 56 62 64 63 69 80 88 82 67 70 88 92 91 97 97 91 90 98 108 105 91 87 85 74 73 80 77 73 80 89 88 79
108 108 103 101 104 104 99 93 92 96 100 102 99 96 99 107 110 102 82 74 89 105 103 97 95 87 78 74 72 78 92 96 88 79 72 67 68 71 71 69 70 70 69 71 71 55 35 31 37 39 38 37 39 46 52 53 60 65 62 62 72 89 92 75 68 83 95 98 103 98 84 82 94 104 104 98 92 85 82 90 99 94 88 91 94 89 79
109 106 102 101 103 104 101 99 99 101 101 101 96 93 97 103 106 101 87 78 92 106 99 92 97 94 81 72 71 81 94 96 88 80 70 67 72 74 69 69 71 71 69 70 71 59 37 30 36 38 37 37 37 42 49 52 57 64 63 60 66 84 97 86 72 78 91 98 102 95 84 89 100 104 105 103 95 89 93 100 101 98 96 96 98 96 91
110 105 102 104 104 103 102 102 103 104 105 104 100 96 97 99 101 99 88 81 95 106 96 90 100 99 83 73 74 80 91 95 88 78 68 68 77 77 69 69 72 71 69 70 72 63 41 30 35 38 36 37 36 39 46 50 54 61 65 63 64 76 95 97 82 75 81 89 95 95 94 99 105 103 103 104 100 97 99 99 97 97 97 96 97 99 98
110 103 101 104 103 102 103 101 101 103 105 104 102 100 97 96 98 97 88 82 97 109 97 88 99 101 87 80 80 82 90 94 87 74 65 70 81 79 69 69 73 72 71 71 71 64 44 31 35 37 35 35 35 36 43 48 52 58 64 67 66 69 84 97 92 79 73 74 83 98 104 102 102 103 102 103 103 100 97 98 98 98 99 100 100 102 100
111 105 103 106 104 101 102 100 100 103 103 101 104 105 100 97 97 95 88 85 98 111 101 89 95 100 92 88 87 85 89 94 86 71 64 73 84 80 70 70 74 74 73 72 71 66 47 32 34 37 34 34 34 34 39 44 49 56 62 68 72 69 73 90 98 91 76 65 70 93 106 102 101 104 102 100 103 101 97 99 102 100 100 102 100 99 101
112 107 104 106 105 101 101 100 101 103 101 100 106 108 102 97 97 94 90 89 99 110 104 91 93 100 100 99 95 88 90 93 84 68 65 77 87 80 70 70 75 76 75 73 73 68 50 32 32 36 34 33 32 33 37 41 44 51 58 67 75 74 72 82 97 99 88 70 65 81 101 104 101 103 103 102 103 102 99 100 102 100 100 102 101 98 101
108 106 103 104 105 104 103 101 100 102 102 102 106 106 101 98 96 93 92 94 101 110 106 95 94 99 101 102 100 95 94 92 81 68 67 78 88 82 71 69 74 76 76 73 73 71 54 34 31 36 34 33 31 30 35 40 42 46 53 62 73 77 73 75 89 100 99 84 69 72 91 103 102 101 106 106 103 102 101 100 101 101 100 100 100 100 99
101 102 101 101 103 104 103 101 100 101 103 103 102 100 98 96 93 92 95 98 103 109 105 96 96 100 98 98 101 100 97 90 78 68 69 78 86 82 72 68 72 76 76 73 73 74 59 37 31 35 34 32 31 29 31 37 41 44 49 56 67 76 77 74 80 93 103 98 79 66 77 96 103 102 105 105 100 99 102 100 99 101 101 99 100 101 99
101 104 102 100 103 105 103 101 101 100 98 95 92 90 92 91 88 91 100 103 104 107 103 97 98 100 98 99 104 102 97 90 78 69 70 78 85 81 72 67 69 74 75 73 73 75 64 41 30 33 34 31 31 30 30 33 37 42 47 51 58 70 78 76 76 86 99 102 88 69 68 87 101 102 101 103 100 98 100 101 100 100 101 100 99 100 100
93 100 101 98 99 100 98 94 93 89 86 84 83 83 87 90 89 94 103 106 104 104 102 98 99 101 102 104 105 101 96 90 79 70 71 79 84 80 71 66 68 72 74 73 73 76 68 46 31 31 33 31 31 32 31 31 33 37 43 47 51 61 74 78 76 80 91 98 94 79 68 75 91 100 100 101 102 100 99 100 100 99 100 101 100 100 100
77 85 87 85 84 85 84 81 78 77 80 81 81 82 86 90 92 97 103 105 103 102 100 98 99 103 106 105 101 95 92 89 79 70 72 79 83 78 71 66 67 71 74 73 73 76 71 52 34 30 32 31 29 31 32 32 31 32 36 42 46 53 66 76 76 75 80 87 93 90 76 68 77 93 100 101 101 102 100 98 98 99 100 100 100 100 100
74 77 77 76 76 75 76 77 76 79 84 83 78 77 81 85 91 98 103 104 102 101 98 97 101 106 106 103 97 91 90 89 79 70 73 81 82 77 71 67 67 71 73 72 72 77 76 60 39 30 31 31 29 31 32 32 31 29 29 35 40 45 56 69 74 73 71 72 79 91 90 76 68 78 93 100 99 100 102 99 97 99 101 99 98 99 100
79 76 75 76 75 73 76 81 86 91 95 89 80 79 82 85 92 100 103 103 102 99 97 98 103 105 102 98 95 93 93 90 79 70 75 83 82 76 72 69 69 72 73 72 72 76 78 67 46 33 31 31 29 31 32 31 29 27 25 28 33 39 47 59 68 74 73 68 68 81 93 88 74 69 78 90 94 96 101 101 97 97 101 99 95 95 100
89 81 79 79 77 78 84 90 96 102 104 95 88 90 92 92 95 100 102 102 101 99 98 101 104 102 97 93 95 98 98 90 76 69 77 85 82 75 72 70 70 73 74 73 72 76 80 74 54 36 32 32 29 30 32 31 28 26 23 24 28 33 39 48 60 71 76 72 66 69 79 87 86 76 71 75 83 88 94 98 98 97 99 97 92 92 98
96 87 84 82 83 89 94 97 102 109 106 94 91 98 101 98 98 100 101 101 100 99 100 102 102 98 91 91 96 102 100 88 74 70 80 87 82 75 72 69 70 74 75 74 74 77 81 78 60 40 33 33 31 29 31 31 28 25 23 22 24 28 32 38 49 61 70 71 68 64 65 75 86 88 78 71 72 76 81 87 93 97 99 96 91 88 94
98 90 88 89 93 98 99 100 106 109 100 87 89 100 104 102 101 102 101 101 100 99 100 103 101 94 88 91 98 103 100 88 74 72 82 87 80 75 74 70 69 74 77 77 76 77 81 81 66 45 35 35 33 30 30 30 27 25 23 21 22 25 28 31 38 49 59 67 70 69 64 64 73 85 88 80 72 69 69 71 79 89 95 98 96 90 88
97 92 93 96 99 100 99 102 107 104 94 88 94 102 103 102 103 102 101 101 99 99 103 105 99 89 85 90 99 105 101 86 72 73 85 88 80 76 76 71 69 74 79 80 78 78 82 83 70 49 36 35 34 31 30 29 27 24 23 22 21 22 25 28 32 38 47 55 63 68 67 60 58 67 79 84 81 75 68 62 64 72 81 90 99 99 92
96 94 97 100 100 100 100 103 104 99 94 95 99 101 101 102 102 101 100 99 100 102 105 101 90 82 83 92 102 107 100 83 71 75 88 90 83 79 78 72 69 74 80 81 80 78 81 84 75 55 39 35 35 33 31 30 27 24 23 22 22 22 23 25 28 31 33 38 47 58 64 63 56 53 59 69 77 78 74 68 64 63 65 73 86 97 100
98 98 99 100 100 100 102 101 99 100 101 101 99 98 100 101 102 101 99 99 101 103 100 92 82 80 85 96 106 108 98 81 72 77 88 93 89 83 77 71 69 73 79 82 81 79 81 85 80 60 41 35 36 35 33 31 27 24 23 22 22 23 23 24 25 28 28 29 36 47 58 64 63 57 53 55 61 68 72 71 69 66 64 64 69 80 93
100 100 100 100 100 101 101 100 100 105 108 103 98 98 100 101 101 100 99 100 102 100 92 85 81 81 87 100 111 108 95 82 77 81 88 94 94 87 77 71 69 72 79 83 81 78 82 88 83 64 44 36 36 36 35 33 29 24 23 22 22 22 24 24 24 26 27 28 31 36 44 54 62 63 59 56 56 60 65 70 71 70 69 68 67 68 76
100 100 101 100 99 100 101 99 102 107 105 98 96 101 102 100 102 103 103 103 101 95 87 83 82 82 89 102 110 105 94 88 87 85 87 94 96 88 77 71 69 72 80 84 81 78 82 89 86 68 47 37 37 37 35 34 31 26 23 23 22 22 23 24 24 25 26 28 29 30 33 41 51 60 64 64 61 60 64 69 73 74 72 72 72 71 70
100 101 100 99 99 100 101 101 104 107 101 95 98 105 106 105 106 105 101 98 95 89 85 83 81 81 89 100 106 104 98 94 92 90 92 99 100 90 78 70 67 72 81 85 82 80 83 90 89 75 53 39 37 38 36 33 31 27 23 23 23 23 23 24 25 25 26 27 29 30 31 35 42 52 63 69 69 67 66 68 72 75 75 73 73 74 74
100 100 100 100 100 101 100 101 104 104 99 97 102 106 105 104 104 99 95 93 90 85 83 83 81 84 92 101 106 106 102 97 94 94 98 103 101 91 78 70 67 72 81 85 83 82 86 91 92 80 58 42 38 39 37 34 31 27 25 24 23 23 24 25 25 27 27 28 29 30 31 33 36 43 53 63 70 71 70 68 67 69 71 71 72 73 73
101 101 100 99 99 100 101 102 103 101 98 101 106 104 97 96 98 96 94 93 89 83 84 86 86 89 97 103 105 105 103 98 96 98 100 103 100 90 79 71 67 72 81 85 83 82 87 92 94 84 63 45 39 40 39 36 32 27 25 24 23 23 24 25 26 28 29 29 30 30 31 31 33 35 41 50 59 66 70 69 67 65 65 65 68 70 71
100 100 100 101 102 102 104 104 102 99 99 104 109 104 94 91 96 99 97 94 91 89 90 91 91 95 102 106 104 103 102 99 99 100 102 104 102 92 79 70 68 73 82 85 82 82 87 93 96 87 67 47 40 40 39 37 33 28 25 24 24 24 24 25 26 28 30 31 32 32 32 32 32 32 33 38 45 54 63 68 69 68 67 65 65 67 70
102 102 104 105 104 102 102 102 100 99 100 105 109 105 96 93 98 102 100 98 98 98 96 95 95 99 104 105 104 103 101 99 100 100 100 103 104 95 79 69 69 76 84 86 83 82 88 95 97 89 68 49 41 42 41 37 34 29 25 24 24 24 25 25 26 28 30 32 33 34 34 33 32 31 30 31 33 40 49 59 65 68 68 68 67 66 66
100 102 104 104 101 101 104 104 101 100 101 103 106 106 101 98 101 101 99 100 102 101 98 97 98 100 103 104 103 102 98 98 100 100 98 102 106 96 78 68 70 78 85 87 84 83 90 96 97 89 69 49 41 43 43 38 34 30 26 25 24 24 24 26 27 28 30 33 34 35 36 35 34 33 32 31 30 31 35 43 53 60 64 65 66 66 65
96 97 99 100 99 102 106 105 101 101 102 103 105 105 103 101 102 102 101 102 102 100 99 98 97 100 105 105 101 96 95 98 101 100 97 102 106 95 77 70 74 81 87 87 84 85 92 98 99 90 70 49 41 43 43 39 35 31 26 25 25 25 24 26 27 28 31 34 36 38 40 39 38 37 35 34 33 32 31 32 38 47 55 62 64 65 65
97 98 99 99 100 104 107 106 103 104 105 107 108 106 103 104 106 105 104 103 101 98 97 95 95 101 107 104 96 92 95 100 102 99 99 104 105 92 76 73 80 86 89 87 84 86 93 99 100 91 72 50 41 44 44 40 35 31 26 24 25 25 25 26 27 29 31 34 38 41 43 43 43 43 41 39 36 34 32 31 31 34 40 49 57 62 64
102 102 101 99 99 103 107 109 109 108 107 109 109 106 105 106 107 104 103 103 99 95 93 93 97 105 108 99 90 90 96 101 101 100 103 107 103 88 76 77 85 90 90 88 85 87 93 99 99 92 73 51 42 45 46 42 36 32 27 25 24 24 24 26 28 29 32 35 39 42 45 46 48 49 48 46 43 40 36 34 33 31 31 35 42 50 57
102 101 100 99 99 102 105 109 111 110 107 105 105 105 107 110 108 105 102 99 94 90 90 94 100 107 105 95 87 90 99 103 102 103 107 107 97 82 76 82 89 91 90 89 88 91 95 98 98 91 72 51 43 46 48 43 38 33 28 26 25 24 24 25 28 30 32 36 40 44 47 48 50 51 51 50 50 48 43 39 36 33 32 31 32 36 43
100 101 103 105 106 104 101 99 99 99 97 96 98 101 105 107 106 104 100 94 90 90 94 98 102 105 101 92 87 92 100 104 105 107 110 105 91 79 79 87 92 93 91 91 91 95 97 98 98 90 70 49 43 47 48 44 38 33 28 26 25 25 24 25 27 30 32 35 39 44 49 51 52 52 51 51 53 53 51 47 42 38 34 33 31 31 33
Wind_Speed
38 40 41 40 40 41 41 42 44 46 47 48 49 50 52 53 55 56 58 60 61 62 63 64 66 68 70 71 72 75 76 74 74 76 77 76 76 77 78 79 79 79 77 70 63 60 57 55 53 49 45 41 39 36 34 31 29 26 25 24 23 21 20 18 16 14 12 11 10 8 8 9 12 14 17 22 25 27 29 32 35 38 42 47 52 55 61
39 40 40 39 40 41 42 43 45 47 47 47 48 49 51 54 56 57 59 60 61 63 64 65 66 69 71 72 72 74 76 76 75 76 77 76 76 76 78 80 81 81 79 71 63 58 56 53 52 50 45 41 39 36 34 32 29 26 24 23 22 21 21 20 19 15 11 9 8 7 6 7 9 11 14 17 21 23 25 27 32 36 41 45 48 52 59
39 40 40 39 40 41 43 44 45 46 46 46 47 48 51 54 57 59 60 61 61 63 64 65 66 69 72 73 74 75 77 76 75 76 76 76 75 76 78 80 81 82 80 73 64 57 55 53 52 51 46 41 38 36 34 32 29 26 23 22 21 21 20 20 19 17 13 9 6 5 4 5 6 8 11 14 17 19 21 24 28 32 35 39 44 51 57
39 40 40 40 40 42 44 44 45 44 45 46 46 48 51 54 57 59 61 62 62 62 63 64 66 68 71 73 75 76 76 76 76 76 76 76 74 74 76 78 80 82 82 76 67 60 56 54 53 51 46 42 39 37 34 33 30 27 24 21 20 20 21 21 20 18 15 11 8 5 3 2 3 6 8 11 13 16 19 22 25 29 32 36 41 48 54
39 40 40 41 41 43 45 45 44 44 45 46 47 49 51 54 57 59 61 62 63 63 63 64 65 67 70 72 74 75 75 76 76 76 77 76 74 73 75 76 78 80 82 78 70 62 57 54 53 51 47 43 39 37 35 34 30 26 24 22 20 21 22 22 22 21 18 14 10 8 5 3 0 3 6 9 11 12 16 19 24 28 32 35 39 45 52
39 40 40 42 43 44 45 44 44 44 45 47 48 50 52 55 57 59 61 62 63 64 64 63 64 66 69 72 74 75 74 74 75 76 76 76 75 73 73 75 76 78 80 77 69 62 58 55 52 50 47 43 39 37 35 33 29 26 23 22 22 23 24 24 24 24 21 17 14 11 9 6 3 2 4 8 11 12 13 16 21 26 30 34 37 43 50
39 40 41 42 44 45 44 43 44 45 45 47 50 52 55 57 58 60 62 63 64 65 65 64 63 65 67 71 73 74 74 72 72 75 76 76 76 74 73 74 75 77 79 76 68 60 56 53 51 50 47 43 40 37 35 33 29 25 24 23 23 25 26 25 26 25 23 21 18 15 12 9 6 4 4 7 10 13 14 15 19 24 28 32 35 40 47
38 40 41 42 44 45 43 43 45 46 47 48 51 55 57 58 59 60 62 63 65 66 65 64 63 64 66 69 71 73 73 72 71 74 75 76 77 76 75 75 75 76 78 76 69 60 55 52 50 49 47 44 40 36 34 33 30 25 23 23 23 23 24 25 25 24 23 23 21 18 15 12 9 6 6 7 9 12 14 16 18 22 26 30 33 38 45
38 40 41 42 43 44 43 44 46 48 49 51 54 57 59 59 60 61 62 63 65 65 65 63 63 64 65 68 70 71 71 71 71 73 75 75 77 77 77 76 76 76 78 77 71 62 55 51 49 48 46 43 39 35 33 33 30 25 21 21 21 22 24 25 25 24 23 22 21 19 17 14 11 8 7 7 9 10 12 14 16 19 23 27 32 36 42
38 39 41 42 44 44 44 46 48 49 52 54 56 58 60 60 61 61 62 63 64 65 64 63 62 63 65 66 68 70 69 69 70 72 74 75 76 77 77 77 76 77 78 78 72 63 56 51 48 46 45 42 38 34 31 31 30 26 20 18 19 21 22 23 25 24 23 23 22 20 18 16 13 11 9 8 9 10 10 11 12 15 20 24 29 34 39
38 39 41 43 44 44 45 46 49 50 52 55 57 58 59 60 61 61 62 64 65 65 64 62 62 63 64 65 68 69 69 67 67 70 72 74 74 75 76 76 76 76 76 77 72 63 56 51 47 45 44 42 38 33 29 29 30 27 22 18 18 19 20 21 24 25 26 26 25 22 20 18 15 13 11 8 8 9 10 11 11 12 16 20 25 30 35
39 39 41 43 44 45 45 47 49 51 52 56 58 59 60 60 61 62 62 63 66 66 63 62 62 63 64 66 68 70 69 66 65 67 70 72 72 72 74 75 76 76 76 75 71 62 55 51 47 45 43 41 38 33 28 26 27 26 24 20 17 17 18 20 23 27 30 30 28 24 22 20 17 15 13 10 9 10 11 12 11 10 12 17 21 26 30
41 40 41 43 43 44 45 47 49 51 54 57 59 59 60 61 62 62 62 62 65 67 64 63 63 62 64 66 68 70 70 66 64 65 67 70 71 71 72 74 75 76 76 76 72 63 56 51 47 43 42 40 37 33 28 25 24 24 23 21 17 16 18 21 24 27 31 32 29 26 23 22 19 16 13 11 11 12 13 13 11 9 10 13 16 21 25
44 43 42 42 43 45 47 49 50 52 55 57 59 60 61 61 61 62 61 61 64 67 65 63 63 63 64 66 68 71 71 68 65 65 65 68 70 70 71 72 74 75 75 76 73 64 55 51 47 42 40 39 37 33 28 25 22 20 21 21 18 15 17 21 23 24 27 29 28 26 23 22 19 16 14 14 13 14 14 13 11 9 9 10 11 13 17
45 46 45 45 45 47 49 51 53 54 56 58 59 60 61 61 61 61 60 59 62 66 65 63 63 63 64 65 67 70 71 68 67 67 66 67 68 70 71 71 73 74 75 75 73 65 55 50 46 41 38 37 36 33 29 25 21 19 19 19 17 15 16 19 21 21 22 23 24 22 22 21 19 16 16 16 16 17 15 14 12 10 9 9 8 7 8
45 47 48 49 49 50 52 53 54 55 56 58 59 60 61 61 61 62 61 59 60 63 64 63 63 63 63 64 66 69 70 68 67 68 68 68 68 69 71 71 72 73 73 74 72 65 55 50 46 42 38 36 35 32 29 25 22 19 17 16 16 15 14 17 19 19 17 18 19 20 21 22 18 15 15 16 19 19 16 15 15 13 13 13 12 11 10
44 46 49 51 52 52 53 54 55 56 57 57 58 60 61 61 62 63 63 60 60 62 63 63 62 62 63 64 65 68 69 66 65 67 68 68 68 69 70 71 71 71 72 72 71 65 55 49 45 42 38 35 33 32 29 25 22 19 15 13 14 15 14 13 14 14 14 15 16 16 19 20 16 13 14 16 19 18 15 16 18 17 17 16 15 14 14
45 46 48 50 53 54 54 54 55 56 57 57 57 58 60 62 62 64 64 62 60 62 63 63 62 62 62 63 64 67 68 66 65 66 67 67 68 69 70 71 71 71 71 71 70 65 56 49 45 42 38 34 32 30 28 25 22 19 15 12 13 15 14 10 8 10 12 14 14 13 15 15 12 11 13 14 18 18 17 19 20 19 19 19 17 15 13
47 48 48 50 53 54 55 55 55 56 57 56 56 57 59 61 63 64 65 63 61 61 63 63 62 61 62 63 64 66 67 66 65 66 67 67 67 69 70 70 70 70 70 71 70 66 57 49 45 42 38 34 31 29 28 25 21 18 15 12 11 13 14 10 6 8 9 10 11 12 12 12 12 12 13 14 18 21 21 23 23 22 22 21 18 13 10
49 49 49 50 53 56 56 56 57 57 57 56 56 56 57 60 62 64 64 63 61 62 63 62 61 61 61 62 64 65 66 66 64 65 66 67 67 68 70 70 69 69 70 69 69 66 57 49 44 41 37 34 30 27 27 25 22 18 15 12 10 10 12 11 5 4 5 6 7 8 9 10 12 13 14 16 20 23 25 27 27 26 25 22 17 13 11
50 50 50 52 55 57 57 58 57 57 57 57 57 56 56 58 62 63 63 62 61 62 63 61 60 60 61 62 63 64 65 65 64 64 65 66 66 67 69 70 68 68 69 68 69 66 58 49 44 40 36 33 29 26 25 25 22 19 15 12 9 8 10 11 7 2 4 5 3 2 5 9 13 14 16 20 23 25 27 29 30 28 26 24 20 18 16
51 52 52 54 56 58 58 59 58 58 57 58 58 57 56 58 61 62 63 62 60 61 61 60 59 59 60 61 62 63 64 65 64 63 63 65 65 66 69 70 69 68 68 68 68 66 59 50 45 41 36 32 29 26 24 24 22 19 16 12 8 6 7 11 8 1 6 6 3 2 4 10 15 18 21 23 24 25 28 30 31 31 30 28 25 22 19
53 54 54 56 58 58 58 59 59 58 57 57 58 58 57 58 60 61 61 60 60 61 61 59 58 59 59 61 62 62 63 64 64 62 63 64 65 66 68 69 68 67 67 67 67 66 60 51 45 41 36 31 28 25 24 23 21 20 17 13 9 5 4 8 8 3 4 6 4 3 6 14 19 22 26 26 26 27 30 32 31 31 30 28 26 23 20
55 55 55 56 58 58 58 58 59 59 58 57 58 58 58 58 59 60 59 58 59 63 62 58 57 58 59 60 61 62 62 64 63 62 62 62 63 65 67 68 67 67 67 66 66 65 60 52 45 41 36 31 28 25 23 21 20 19 17 15 10 6 4 5 7 6 4 5 5 5 9 17 22 26 29 30 29 30 32 32 31 30 28 26 25 22 19
55 55 55 57 58 59 58 58 58 59 58 58 59 59 59 59 59 58 57 56 58 62 63 59 57 58 59 60 61 61 62 63 63 62 61 61 62 65 67 67 66 65 66 66 65 65 60 52 45 42 37 32 28 25 23 21 19 18 17 15 12 8 6 5 6 7 8 7 4 7 12 18 23 28 30 29 30 32 32 31 30 28 27 27 24 20 19
55 56 56 57 59 59 59 58 58 59 59 58 59 60 59 58 58 56 55 55 57 61 62 59 57 57 58 59 60 61 61 62 62 62 60 59 61 64 66 66 65 64 65 65 65 64 61 52 46 42 38 34 30 26 23 21 19 17 15 14 13 10 8 7 7 7 10 10 6 9 16 21 25 28 28 28 30 33 33 31 29 27 27 27 24 21 20
56 56 57 58 59 60 60 59 59 59 59 58 59 60 59 57 56 55 54 55 56 59 61 60 57 56 56 58 60 60 61 62 62 61 59 58 59 62 65 66 64 63 64 64 64 64 61 54 46 42 39 35 31 28 24 22 20 18 15 13 13 11 10 10 10 10 12 13 10 11 19 25 27 27 27 29 31 33 33 31 29 28 29 29 26 23 23
55 56 58 59 60 61 61 60 60 60 60 59 59 58 57 56 55 55 55 55 56 58 60 59 57 56 56 57 59 59 61 62 62 60 58 57 58 61 64 65 63 62 62 63 63 64 62 55 47 42 39 36 33 30 25 22 20 18 16 13 12 12 11 11 13 13 13 15 15 14 20 28 29 28 28 31 33 34 33 32 31 31 32 31 28 26 26
55 56 58 59 60 62 62 61 60 60 59 58 57 56 55 54 54 54 55 55 55 57 60 59 57 56 56 56 57 59 60 62 61 59 57 56 56 59 62 64 63 61 61 62 63 63 62 57 48 42 40 37 33 31 28 24 20 18 17 15 13 12 12 12 15 16 15 16 18 17 19 28 32 31 30 32 34 35 35 33 33 35 35 33 30 29 29
53 56 58 58 59 61 61 60 59 58 57 56 55 54 53 54 54 54 54 54 55 56 59 58 56 55 55 55 56 57 59 60 59 57 56 55 55 57 61 63 62 61 60 61 62 63 62 58 50 44 40 37 34 32 30 26 22 19 17 16 15 14 13 13 15 18 19 19 20 20 21 26 32 33 33 34 36 38 37 36 36 38 38 35 32 32 33
52 54 56 56 56 57 57 57 56 55 54 54 53 52 52 53 54 53 53 53 54 56 57 57 55 54 55 55 56 56 58 58 57 56 55 55 55 57 59 62 62 61 60 60 62 63 63 59 52 46 41 38 35 32 30 28 25 21 18 17 16 15 15 16 17 20 23 23 23 24 25 26 31 35 36 36 39 41 41 39 38 40 41 38 35 37 38
51 53 54 53 53 52 53 53 53 52 52 52 52 52 52 52 52 52 52 53 54 56 56 55 54 54 54 55 55 56 57 57 56 55 55 54 54 56 59 61 62 61 60 60 61 62 63 61 55 48 43 39 35 33 31 29 27 24 20 17 17 17 17 18 19 21 24 26 26 27 28 28 30 36 39 40 41 43 43 42 40 42 44 42 40 42 42
52 53 53 53 52 52 51 52 52 52 53 53 52 52 52 52 51 51 52 53 55 55 55 54 53 54 54 54 55 56 57 56 55 54 54 54 54 56 58 60 62 62 60 60 60 62 63 62 57 50 45 41 37 34 32 30 28 25 22 18 18 18 20 21 21 21 24 27 29 29 30 31 32 35 40 42 44 44 45 44 43 44 46 45 44 46 46
54 54 54 54 53 52 51 51 52 53 54 54 53 52 52 52 51 51 52 53 54 54 54 53 53 53 53 53 54 56 56 56 54 53 52 53 54 55 57 59 61 62 61 60 61 62 63 63 59 52 47 43 39 35 33 31 29 26 23 20 18 19 21 22 23 23 24 28 30 32 32 33 34 36 39 43 45 46 47 47 46 46 47 47 47 49 50
56 56 55 55 54 53 51 51 52 54 55 54 53 52 52 52 52 52 52 52 53 53 53 53 53 52 52 51 53 55 56 55 54 52 51 52 53 55 56 58 60 62 61 60 60 62 63 63 60 54 48 44 41 37 34 32 30 28 25 21 19 19 22 24 25 26 26 28 30 33 34 35 36 37 39 42 45 47 48 49 49 49 50 50 49 51 53
57 57 56 55 54 53 52 52 53 54 54 54 53 52 52 52 52 52 52 52 52 52 52 52 52 51 50 51 53 54 55 54 52 50 50 51 53 54 56 58 59 61 61 60 60 61 62 63 61 55 49 45 42 39 36 33 31 29 26 23 20 19 21 24 26 28 29 29 30 32 35 37 38 39 40 42 44 46 47 49 50 52 52 53 52 53 54
58 56 55 54 54 54 53 53 54 55 54 54 53 52 52 52 52 52 52 52 52 52 51 51 51 50 50 51 53 54 54 53 51 49 49 51 53 54 56 58 59 60 60 60 60 61 62 63 61 57 50 46 43 40 37 35 32 30 28 25 23 21 21 24 27 29 31 31 31 32 35 37 39 40 42 43 44 46 46 47 48 51 53 55 56 56 56
57 55 54 54 55 55 55 55 56 55 55 54 53 52 52 52 52 52 52 52 51 51 51 50 49 49 49 51 53 54 54 52 50 48 48 50 53 55 56 58 58 59 60 60 60 61 61 62 62 58 52 47 44 41 39 36 33 31 29 27 25 23 22 23 26 30 32 33 32 33 34 36 38 39 41 43 45 46 47 46 46 47 50 54 57 59 58
56 55 55 55 56 56 57 57 57 56 55 54 53 52 52 52 52 52 52 51 51 50 50 49 48 48 49 51 52 53 53 51 49 47 48 51 53 55 57 58 58 59 59 59 60 61 62 62 62 59 53 47 44 42 40 38 35 32 30 28 26 25 24 24 26 29 32 33 33 33 34 36 37 38 40 41 43 45 47 47 47 46 47 50 54 59 60
56 56 56 57 57 58 58 58 57 56 56 56 55 52 51 52 53 53 51 50 50 50 49 48 48 49 49 51 52 53 52 50 49 48 49 51 54 56 57 58 59 59 59 59 59 61 62 63 63 60 54 48 44 42 40 39 37 34 32 29 27 26 25 25 26 27 30 33 34 35 35 35 36 38 39 40 42 44 46 47 48 48 47 47 50 55 59
57 58 58 58 58 58 58 57 56 57 57 57 55 52 52 52 53 52 50 49 49 50 49 49 49 49 49 50 52 51 50 49 50 50 50 52 54 56 57 58 59 59 60 59 59 60 62 63 63 61 56 49 45 42 40 39 37 36 33 31 29 27 27 26 27 27 28 31 33 35 36 36 36 37 38 39 41 43 46 47 48 49 49 49 49 52 56
58 58 59 59 58 58 58 57 57 58 59 57 54 53 53 53 52 51 50 50 50 50 49 49 50 49 49 50 50 49 48 48 50 51 52 53 54 56 57 58 59 59 60 59 59 60 62 63 64 62 57 51 46 43 41 39 37 36 34 32 30 28 28 27 27 28 28 29 31 33 36 37 37 37 37 39 40 43 45 48 50 51 52 52 51 52 54
59 59 59 59 59 58 58 58 59 60 59 57 54 53 53 52 51 51 50 51 51 50 50 50 49 48 49 50 49 47 47 48 50 52 53 54 55 56 58 59 59 59 59 59 59 60 62 63 64 63 59 52 47 44 42 40 38 36 34 33 31 29 28 28 28 28 28 29 30 32 34 37 38 39 39 39 41 42 45 47 50 52 53 54 54 54 54
59 60 60 59 59 59 59 60 61 61 59 56 55 55 54 52 51 51 51 52 52 51 50 50 49 48 49 49 48 46 47 49 50 52 53 55 56 57 59 60 59 59 59 58 58 60 62 63 64 64 60 54 48 45 42 41 39 36 34 33 32 30 29 28 28 28 29 29 30 32 33 35 38 40 41 41 42 43 44 45 47 49 51 53 54 55 55
60 61 60 60 59 60 61 62 62 60 58 56 56 56 54 51 51 52 52 52 52 51 50 49 48 48 49 49 47 46 47 49 51 52 54 56 57 58 59 59 59 59 58 58 58 60 62 63 64 64 61 55 49 46 43 41 39 37 35 33 32 31 30 28 28 28 29 30 30 32 33 35 37 39 41 43 43 43 44 45 46 48 49 51 53 55 56
61 61 61 61 61 62 62 62 61 59 57 57 57 56 54 52 52 52 52 52 51 51 50 49 48 49 49 49 47 47 48 49 51 53 55 57 59 59 59 59 59 59 59 58 58 60 62 64 64 64 61 55 50 47 44 42 40 38 36 34 32 31 30 29 29 29 29 30 31 32 33 35 37 38 40 42 43 44 45 46 46 47 48 49 51 53 55
62 62 63 63 63 63 62 61 59 57 57 57 57 56 54 53 53 53 52 52 51 51 51 50 49 50 50 49 48 48 49 50 52 54 55 58 60 60 59 59 58 58 58 58 59 61 63 64 64 64 61 55 50 47 45 42 40 38 36 35 33 31 30 30 29 30 30 30 31 32 34 35 36 38 39 41 43 45 46 47 47 48 48 49 50 51 52
64 64 65 65 64 62 60 58 57 56 57 57 56 55 54 53 53 53 52 52 52 52 51 50 50 50 50 49 48 49 50 51 53 55 56 58 59 60 59 59 59 59 58 58 59 61 63 64 65 64 61 56 51 47 45 43 41 38 36 35 33 32 31 30 30 30 30 31 31 32 33 35 36 37 39 40 42 44 45 47 48 49 49 49 50 51 51
67 67 66 64 62 59 57 55 55 56 56 56 55 54 54 54 54 53 53 53 53 52 51 51 51 50 49 49 49 49 50 52 54 56 57 58 59 59 59 59 59 59 58 58 59 61 63 64 64 64 62 57 52 48 46 44 41 39 37 35 33 32 32 31 31 30 30 31 31 32 33 34 35 36 38 40 41 43 44 46 47 49 50 50 51 51 52
67 66 63 61 58 56 54 54 55 56 56 55 54 54 54 55 54 53 53 53 53 52 52 51 51 50 49 49 49 50 51 53 55 56 57 58 58 58 58 59 60 59 58 58 59 62 63 64 64 64 62 57 52 49 47 45 42 40 38 36 34 33 32 31 31 31 31 31 31 32 33 33 34 35 36 38 40 42 43 45 46 48 49 51 51 52 52
64 62 59 57 55 54 53 54 55 56 55 54 54 54 55 55 54 53 53 53 53 52 52 52 51 50 50 50 50 51 53 54 56 57 58 58 57 57 58 59 60 59 58 59 60 62 63 64 64 64 61 57 52 49 47 45 43 41 39 37 36 34 33 32 31 31 31 32 32 32 33 33 33 34 35 36 38 40 42 44 46 47 48 49 51 52 53
59 57 56 55 55 55 55 55 55 55 55 54 53 54 55 55 55 54 53 53 53 53 52 52 51 51 50 50 51 52 53 55 57 58 58 57 57 57 58 60 60 59 58 59 61 63 64 64 65 64 61 56 52 49 48 46 44 42 40 38 36 35 34 33 32 31 32 32 32 32 32 33 34 34 35 35 36 37 40 42 44 46 47 48 49 51 52
Wind_Direction
321 323 326 329 331 333 335 337 338 340 341 341 340 341 344 345 347 347 347 347 348 349 349 349 348 349 350 352 352 351 351 353 357 358 360 1 1 0 360 359 0 2 2 2 360 357 358 359 358 358 359 359 360 359 360 3 5 2 355 353 355 355 354 353 353 349 338 326 314 298 279 260 246 236 232 232 232 231 228 224 224 222 217 214 214 214 215
320 323 326 328 331 333 335 337 338 339 340 341 341 342 344 345 346 347 347 348 348 348 348 349 348 348 349 351 352 352 350 351 355 358 359 1 1 1 0 359 360 1 1 2 1 359 357 358 359 360 360 0 360 0 2 6 8 6 1 358 358 359 359 358 356 354 350 340 326 310 292 270 252 239 231 231 230 228 227 223 221 220 217 213 210 209 212
320 323 326 328 331 333 334 335 337 338 339 339 340 342 343 344 345 346 347 347 348 348 347 348 348 348 349 350 351 351 350 350 353 357 358 0 2 1 1 360 360 360 0 0 1 360 358 359 1 0 0 1 1 2 5 8 9 9 8 5 3 2 3 3 359 357 358 359 355 337 306 276 254 240 230 229 228 226 224 221 219 219 218 215 209 207 209
320 323 325 327 330 333 333 334 336 337 338 338 339 341 342 342 343 344 346 347 347 346 346 347 348 348 348 349 350 350 349 349 351 355 357 359 1 2 1 0 360 360 360 359 359 0 359 360 2 1 0 2 2 3 7 9 10 11 13 14 12 9 10 11 9 6 5 11 26 26 357 305 254 239 227 221 222 223 221 216 215 214 213 212 211 208 208
320 322 324 326 329 331 332 332 334 336 337 337 338 340 341 341 341 342 343 345 346 346 345 346 347 348 348 348 349 349 349 348 350 353 356 358 360 2 1 1 0 360 360 359 358 359 359 360 1 1 1 3 3 5 9 10 10 12 16 20 22 22 23 23 20 16 14 18 31 43 44 42 213 222 218 211 207 212 218 215 210 209 207 207 208 207 208
320 322 323 324 327 330 331 331 332 335 336 336 337 338 340 340 340 340 341 343 345 345 344 344 346 348 348 347 348 348 348 348 349 351 355 357 358 0 1 1 0 0 0 360 358 358 358 359 360 1 2 3 4 7 11 11 10 14 19 25 30 33 33 32 29 26 23 24 30 42 51 57 77 144 194 202 196 193 205 212 210 207 205 204 204 205 207
319 320 321 322 325 328 330 329 331 332 334 334 335 336 338 339 339 340 340 341 343 344 344 343 344 347 348 347 347 347 346 347 349 350 353 356 357 358 0 0 0 0 0 360 359 359 358 358 358 360 2 3 5 9 12 11 11 17 24 29 35 38 38 37 36 33 30 29 30 36 44 52 68 105 152 181 188 185 188 199 207 205 203 201 201 204 206
318 318 319 320 323 327 328 328 328 329 330 331 332 334 337 339 339 339 339 340 342 343 343 342 343 346 347 347 347 346 345 347 348 350 352 355 356 357 359 360 360 0 0 360 359 359 359 357 357 360 2 4 6 9 11 12 13 20 29 35 39 41 43 42 40 38 35 34 33 34 39 46 57 82 119 148 169 178 181 188 198 201 200 199 200 203 206
316 316 317 318 321 324 326 326 326 326 326 328 330 333 336 338 338 338 338 339 340 342 342 342 343 345 347 347 346 346 346 346 347 349 351 354 356 356 358 359 359 360 0 359 359 359 359 358 357 359 2 4 5 8 11 12 14 19 30 39 43 46 47 46 45 42 40 39 37 37 40 45 54 70 94 122 143 160 172 180 189 195 196 197 199 202 205
315 315 316 317 318 321 323 324 324 323 323 325 329 332 334 336 338 338 338 338 339 340 341 341 342 344 346 346 345 346 347 346 347 348 350 354 356 356 357 358 358 359 360 359 358 357 358 357 356 358 1 3 4 6 9 12 13 15 23 35 44 49 51 51 50 47 45 44 43 41 43 48 56 65 77 102 126 140 152 163 175 186 192 196 199 202 205
314 314 314 314 315 317 319 321 321 321 321 323 326 329 331 334 336 337 337 337 337 339 340 340 342 343 344 344 345 346 347 347 347 348 350 352 355 356 356 357 358 358 359 359 358 356 356 357 356 356 360 2 2 4 8 11 12 12 16 26 41 49 53 55 54 51 48 45 43 44 45 49 57 65 73 89 109 125 136 141 151 171 185 193 198 202 205
312 312 311 311 312 314 316 318 318 318 319 321 324 327 329 332 334 336 337 336 336 337 339 339 341 342 343 343 344 345 346 347 347 348 349 351 354 355 356 356 357 357 358 358 358 356 356 356 356 355 357 360 1 2 5 9 10 11 10 15 34 48 53 56 56 55 50 44 41 43 47 50 55 62 70 83 100 116 125 127 131 150 175 187 195 201 205
307 308 307 307 309 310 313 315 315 316 318 319 322 325 328 331 333 334 335 336 336 336 337 338 339 341 342 342 343 343 345 346 346 348 349 350 353 355 356 356 356 357 357 357 358 357 356 355 356 355 355 357 360 1 2 5 8 10 7 8 23 43 54 57 58 58 55 46 38 38 44 48 50 58 69 80 97 109 109 109 115 134 161 179 191 198 203
303 304 304 305 306 308 310 311 313 315 316 318 320 324 327 330 332 332 334 336 336 335 336 337 338 340 342 342 342 342 344 345 345 347 349 350 352 354 355 356 356 356 356 356 357 357 356 355 355 355 353 355 359 1 0 1 4 7 7 7 15 35 53 59 58 60 62 56 44 37 40 43 45 55 69 74 84 92 91 92 101 119 144 162 178 191 199
301 302 303 303 304 305 307 309 311 313 315 316 320 323 325 327 330 331 333 336 336 335 334 335 337 339 341 341 341 342 343 344 344 345 348 350 351 353 355 355 355 356 356 356 356 356 355 354 354 354 352 353 358 0 360 358 358 3 8 8 7 24 51 60 58 59 68 72 63 52 46 42 41 53 67 73 79 81 82 88 94 102 116 124 131 145 172
300 301 302 303 303 303 305 306 308 310 312 315 319 321 322 324 327 328 330 334 336 334 333 333 335 338 339 340 341 341 343 343 342 343 346 349 351 353 354 354 355 355 355 355 356 356 355 353 353 353 353 353 355 359 360 356 355 359 6 5 359 10 40 59 60 58 66 77 76 68 57 46 41 54 71 80 83 82 85 94 96 96 101 103 109 116 126
296 299 301 302 302 303 304 305 307 308 310 313 316 318 319 321 324 325 327 331 334 334 332 331 334 336 338 339 340 341 342 342 341 342 345 347 349 352 353 353 353 354 354 354 356 356 355 353 352 352 353 352 353 357 359 356 354 355 359 0 356 1 22 51 65 66 68 72 74 74 65 52 45 61 80 88 89 88 94 99 97 98 100 102 106 111 118
291 293 296 298 300 300 301 303 304 305 307 310 314 316 317 319 321 323 324 327 331 333 331 329 332 335 337 338 338 340 342 341 340 340 343 346 348 350 352 352 352 353 354 354 355 355 355 353 353 352 352 352 352 354 357 357 355 353 354 357 353 355 5 28 66 78 76 74 72 73 70 60 57 75 91 95 96 96 100 102 102 102 103 103 102 102 109
287 288 290 293 296 297 298 299 301 302 305 308 311 314 316 317 318 320 321 324 328 331 330 328 329 333 336 336 337 339 341 341 339 340 342 345 347 349 350 351 351 352 353 353 354 355 354 353 352 351 350 351 351 350 352 355 355 351 349 349 346 349 354 7 54 83 86 88 84 77 72 68 72 88 99 104 104 106 107 106 104 104 104 102 98 98 111
287 287 287 290 292 294 295 296 299 301 303 305 307 311 314 315 315 317 319 321 325 329 328 326 328 332 335 335 336 338 340 340 338 339 341 343 345 347 349 349 350 350 352 353 354 355 354 353 352 351 349 350 350 347 348 352 353 349 343 341 344 346 346 350 20 78 92 93 93 93 94 90 91 102 115 118 116 116 114 110 106 105 105 103 101 107 122
286 287 287 289 290 291 293 295 297 299 301 303 305 308 311 312 313 315 317 319 323 326 326 325 327 330 333 334 334 337 339 338 338 338 340 341 344 346 347 348 349 349 351 352 353 354 354 352 351 351 350 349 349 346 344 347 350 349 341 338 345 347 338 335 338 48 99 91 98 163 139 108 101 114 127 128 125 123 119 114 111 108 105 102 102 107 114
284 285 286 288 288 289 291 293 295 297 300 301 304 307 309 310 311 313 315 317 320 323 324 324 326 329 331 332 333 336 337 337 337 337 338 340 343 345 346 346 347 348 350 351 353 354 353 352 350 350 350 349 348 345 343 344 347 348 342 337 338 339 331 326 324 353 121 111 108 213 153 115 111 124 134 133 131 128 122 117 115 111 107 104 102 103 106
281 283 285 286 287 288 290 292 294 296 299 300 302 304 306 308 310 312 313 316 319 321 322 323 325 327 329 330 332 334 336 336 336 336 337 339 342 344 345 346 346 347 349 350 352 353 353 351 349 349 349 348 346 344 342 341 343 345 343 337 330 318 315 319 314 282 158 131 92 78 139 133 129 137 142 138 135 133 126 120 117 114 111 110 108 107 110
279 282 284 285 287 289 290 292 294 296 298 299 300 302 304 306 308 310 312 315 318 319 320 322 324 326 327 329 331 333 335 335 334 334 336 339 341 342 344 345 345 346 348 349 351 353 353 351 348 348 348 347 345 342 339 338 340 342 343 339 327 303 284 299 300 282 224 169 109 98 143 148 143 146 149 146 144 139 132 125 121 118 116 114 111 113 117
278 281 283 285 287 288 290 292 294 296 297 298 299 300 302 305 307 308 311 314 317 318 319 321 323 325 326 328 330 331 333 333 333 333 335 338 340 341 343 344 345 345 347 348 350 352 353 351 348 346 346 345 343 340 337 335 336 337 339 337 328 304 276 261 271 272 251 221 159 130 152 158 153 154 157 156 152 145 137 131 128 126 125 121 116 120 125
277 279 282 284 286 288 289 292 293 295 296 297 298 300 302 304 305 307 311 314 315 316 318 320 322 324 325 327 328 330 331 332 331 332 334 338 339 340 342 343 344 345 346 347 349 351 352 351 348 345 344 343 341 339 336 332 331 332 332 331 326 307 273 244 237 247 250 244 212 160 164 167 164 163 165 162 157 151 142 137 136 135 131 126 122 125 128
276 279 281 283 285 286 288 290 292 294 295 297 298 299 301 303 305 307 310 312 313 315 316 318 320 322 324 325 327 328 329 330 330 331 334 337 339 339 341 343 343 344 345 347 348 350 351 350 348 345 343 341 339 338 336 331 327 327 326 322 318 306 276 245 227 228 241 245 230 187 175 173 170 170 169 165 162 157 150 146 146 143 138 133 129 131 134
278 279 280 282 283 285 287 289 291 292 294 295 296 298 300 303 304 307 309 310 311 313 315 317 319 320 322 323 325 326 327 328 328 330 333 336 337 338 340 342 343 343 344 346 347 349 350 350 348 345 342 339 337 336 335 332 326 322 319 312 307 300 284 255 231 222 228 237 235 213 185 177 175 176 174 171 169 166 160 158 157 151 144 140 138 140 143
279 280 280 281 282 284 286 288 290 291 292 294 295 298 300 302 303 306 307 308 310 312 314 315 317 319 320 322 324 325 325 326 327 329 332 334 336 337 339 341 342 343 344 345 347 348 349 349 347 345 341 338 335 333 332 331 326 319 311 304 296 289 282 263 238 223 220 227 234 228 199 183 182 183 181 179 178 175 172 170 165 158 152 148 147 150 151
279 279 280 281 282 284 286 287 289 290 292 293 295 297 299 301 302 304 306 307 308 311 313 314 315 318 319 321 322 323 323 324 325 328 331 333 334 335 337 340 342 342 343 345 346 348 349 348 346 344 341 338 335 332 330 328 325 317 306 297 289 280 273 264 243 226 218 218 225 229 216 196 190 190 188 187 186 184 182 180 174 165 160 156 156 158 159
280 280 280 282 283 285 286 288 289 291 293 294 295 296 298 299 301 302 304 305 307 310 311 312 314 316 318 318 319 320 321 322 324 326 329 331 332 333 336 339 341 342 343 344 346 347 348 348 346 343 341 338 334 332 328 325 322 316 305 293 283 273 265 260 248 232 221 217 217 223 223 212 199 194 194 194 193 191 190 188 181 173 168 165 165 167 166
279 279 281 282 284 286 288 290 292 294 294 295 295 296 297 298 300 301 303 305 307 308 309 310 312 314 315 316 318 319 320 321 323 325 328 329 330 332 334 338 341 342 342 343 345 346 347 347 345 342 340 338 335 331 328 324 320 316 307 293 280 270 261 256 252 241 230 223 218 217 222 222 211 201 198 200 199 196 195 194 188 180 176 175 175 173 170
277 278 280 282 285 287 290 292 294 295 295 296 297 297 297 298 299 301 303 305 305 306 307 308 311 312 314 315 317 318 319 319 321 324 327 328 329 331 334 337 340 341 341 342 345 346 347 347 345 342 339 337 335 332 328 324 319 315 308 296 280 268 259 254 252 247 238 231 224 218 219 224 221 211 205 205 204 202 200 199 196 189 185 184 182 178 175
275 278 280 282 284 287 289 292 294 294 295 297 298 298 298 298 299 301 302 303 303 303 305 307 309 311 312 314 316 317 317 317 319 323 326 327 328 330 333 336 339 340 341 342 344 345 346 346 345 342 338 336 334 331 328 323 319 314 308 299 284 268 258 252 249 246 242 236 230 224 220 221 223 221 215 211 209 207 205 203 201 198 194 192 189 184 182
275 277 280 282 284 286 288 291 292 293 295 297 298 297 297 297 299 300 300 300 300 301 303 305 308 309 311 313 315 315 314 315 318 321 325 327 327 329 332 335 338 339 340 341 343 344 345 346 345 341 337 334 332 330 327 324 319 315 309 301 288 272 260 253 248 245 244 240 235 231 226 222 222 224 223 219 215 213 211 209 205 203 201 200 197 193 190
275 277 279 281 283 284 286 288 290 291 295 298 298 296 295 296 298 298 298 297 298 300 302 304 306 308 310 313 314 313 312 313 316 320 325 327 327 329 331 334 337 339 340 340 342 343 344 345 344 341 337 334 331 328 327 325 320 315 310 302 292 278 264 256 251 247 245 244 240 235 231 227 223 223 225 225 223 220 218 216 212 208 206 205 204 202 198
274 276 278 279 281 282 284 285 287 290 296 298 296 294 293 295 296 296 295 295 297 299 301 303 305 307 310 312 312 310 310 311 314 319 324 326 327 329 331 333 335 338 339 339 340 342 343 344 344 341 337 333 330 328 326 325 321 316 311 304 296 284 271 260 254 249 247 245 242 239 236 233 229 225 224 226 227 226 225 223 219 215 212 210 209 209 206
273 275 276 277 279 280 281 282 285 290 295 297 294 291 292 293 293 293 293 294 297 298 300 302 304 307 310 311 310 308 308 310 313 317 321 324 327 329 330 332 334 337 339 338 339 340 342 343 343 341 337 333 330 327 325 324 322 317 312 306 298 289 279 266 258 254 252 250 247 243 241 239 236 232 228 227 227 228 229 229 226 222 219 216 214 213 212
271 273 274 275 277 278 279 281 285 290 294 294 291 289 289 290 290 291 292 294 296 297 298 301 304 307 309 309 308 306 307 309 312 315 317 321 324 327 328 330 333 336 338 338 337 339 341 342 342 341 337 332 330 327 325 323 322 318 313 307 300 293 284 274 264 259 257 255 252 248 245 243 242 240 236 232 230 230 230 231 231 229 225 222 219 218 217
269 270 272 274 276 277 279 282 286 289 291 292 290 287 287 288 289 290 292 293 295 296 298 302 304 306 307 307 306 305 306 308 311 314 315 318 321 325 327 329 331 335 336 336 336 338 340 341 341 340 337 333 329 327 325 323 321 318 313 308 302 295 287 279 271 263 259 256 254 251 248 245 244 243 241 237 235 233 233 232 233 232 231 228 225 223 221
267 269 271 273 276 277 279 281 284 286 289 290 288 286 286 287 288 290 292 293 294 296 299 301 303 304 305 305 304 304 306 309 312 314 315 317 319 322 325 327 330 333 335 335 335 337 339 340 340 339 337 333 329 327 324 322 320 317 313 309 304 297 290 283 276 270 263 258 256 255 253 250 247 245 243 241 238 236 234 234 233 233 233 232 230 228 226
267 269 272 274 276 277 278 279 281 284 288 289 286 284 284 285 287 289 291 292 293 296 298 300 301 302 304 304 304 304 306 309 312 314 316 317 318 320 322 325 329 332 333 334 334 336 337 338 339 338 336 333 329 326 324 322 320 317 313 309 304 299 293 286 280 274 268 262 257 255 254 252 250 247 244 242 240 238 236 234 233 233 233 233 232 231 230
268 270 272 274 275 276 276 278 281 285 287 286 283 281 282 284 286 288 290 291 293 295 297 298 299 301 303 303 303 304 306 309 312 314 316 317 317 318 320 324 327 330 332 332 333 334 336 337 338 337 336 332 329 326 324 322 320 317 313 309 304 299 294 288 282 276 272 266 260 256 253 251 250 248 245 243 241 240 238 236 235 234 234 233 233 233 233
269 270 271 273 274 275 276 279 282 285 285 282 279 278 280 283 285 287 289 290 292 294 295 296 298 301 302 302 302 304 306 308 311 314 317 318 318 318 319 322 326 329 331 331 331 333 335 336 336 337 335 332 328 325 323 321 319 317 313 308 304 300 294 289 283 278 273 268 264 259 255 252 249 248 247 245 243 242 241 240 239 238 237 235 234 234 234
267 269 270 271 272 274 277 280 283 283 281 278 276 277 279 282 284 286 287 289 291 293 294 295 298 300 301 300 301 303 305 307 310 313 316 318 318 317 318 321 325 328 329 329 330 332 334 335 335 336 334 331 327 324 323 321 319 317 313 309 305 300 295 290 284 279 274 270 266 262 258 255 252 249 247 246 245 244 243 242 242 241 240 239 237 236 236
266 267 269 271 273 275 278 280 281 279 276 273 274 276 278 281 283 284 286 289 290 291 293 294 296 298 299 299 300 301 303 305 308 311 314 316 317 316 316 319 324 326 327 327 329 331 333 334 334 334 333 330 326 323 322 320 318 316 313 309 305 301 296 291 286 281 276 271 267 264 260 258 255 253 251 249 247 246 244 243 243 242 242 241 240 239 238
266 267 269 271 273 276 278 278 277 274 271 271 272 275 277 280 281 283 285 287 289 290 291 293 295 296 297 297 298 300 302 304 307 309 312 315 316 315 316 318 322 325 326 326 327 330 332 332 333 333 332 329 325 322 321 319 318 316 313 310 306 302 297 293 288 283 279 274 270 266 263 260 258 256 255 253 251 249 247 246 245 244 244 243 243 242 241
268 269 271 273 275 276 276 275 272 269 268 269 271 273 276 278 279 281 283 285 286 288 290 292 293 295 295 296 298 300 302 304 305 307 310 312 314 314 315 318 322 324 324 325 326 329 330 331 331 331 331 328 324 321 320 318 317 315 312 310 306 302 298 294 290 285 281 278 274 270 266 263 260 258 257 255 254 252 250 249 247 246 245 245 245 245 245
270 271 272 273 274 274 272 270 267 266 267 268 270 272 274 276 277 279 281 283 284 286 288 290 292 293 293 294 297 299 301 303 304 306 308 310 312 312 315 318 321 322 322 323 325 327 329 329 330 330 329 327 323 321 319 318 316 315 312 309 306 303 299 295 292 288 284 280 277 274 270 267 263 260 258 256 255 255 254 252 251 249 247 246 246 246 246
270 271 271 271 271 270 268 266 265 265 266 267 269 270 272 274 275 277 279 281 282 284 287 289 291 291 291 292 295 298 300 301 303 305 307 309 310 312 314 318 320 320 321 322 324 326 327 328 328 329 328 326 322 320 318 317 316 314 313 310 307 304 300 297 293 290 286 283 280 276 273 270 266 263 260 258 256 255 255 254 253 252 250 249 248 247 247
268 269 269 269 268 267 265 264 264 264 266 267 268 270 271 273 274 276 278 279 281 283 286 288 289 288 289 291 294 297 299 301 303 305 306 307 309 311 314 317 318 319 319 321 323 325 326 326 327 328 327 324 321 319 317 316 315 314 312 310 308 305 303 299 295 291 288 284 281 279 276 273 269 266 263 261 258 257 256 255 254 254 253 251 250 249 248
266 267 267 266 266 266 265 264 264 265 266 268 268 269 270 272 273 275 277 279 281 284 286 287 286 286 287 290 293 296 299 301 303 304 305 306 308 311 314 316 317 317 318 320 322 324 324 325 326 326 325 323 320 318 316 315 314 313 312 310 308 306 303 300 297 293 289 286 283 280 278 275 272 269 266 264 261 260 258 257 256 255 255 254 253 252 251